Date String (YYYY-MM-DD hh:mm:ss) UTC,Instrument flags,Ambient pressure (hPa),Sample flow (lpm),Bypass flow (lpm),Sample temperature (°C),Ambient temperature (°C),ASC tube jacket temperature (°C),LED temperature (°C),Box temperature (°C),Sample RH (%),Span deviation,Mass concentration (μg/m³),Mass concentration (μg/m³),Mass concentration (μg/m³)
DateTimeUTC,F1_M11,P_M11,Q1_M11,Q2_M11,T1_M11,T2_M11,T3_M11,T4_M11,T5_M11,U1_M11,ZSPAN_M11,X0_M11,X2_M11,X1_M11
2023-01-20 19:00:00,,0827.2,5.00,0.00,22.4,21.2,00.0,31.2,24.3,09.4,0000.0,0013.77,0008.61,0008.03
2023-01-20 19:01:00,,0827.1,4.99,0.00,22.5,21.2,00.0,31.2,24.3,09.3,0000.0,0013.77,0008.33,0007.75
2023-01-20 19:02:00,,0827.1,5.01,0.00,22.5,21.2,00.0,31.2,24.3,09.0,0000.0,0013.92,0008.03,0007.43
2023-01-20 19:03:00,,0827.1,5.00,0.00,22.5,21.2,00.0,31.2,24.3,09.2,0000.0,0014.25,0007.86,0007.25
2023-01-20 19:04:00,,0827.1,5.00,0.00,22.5,21.2,00.0,31.2,24.3,09.2,0000.0,0014.27,0007.68,0007.07
2023-01-20 19:05:00,,0827.1,4.99,0.00,22.5,21.2,00.0,31.2,24.3,09.1,0000.0,0014.74,0007.48,0006.86
2023-01-20 19:06:00,,0827.1,5.03,0.00,22.5,21.3,00.0,31.2,24.3,09.2,0000.0,0015.35,0007.30,0006.69
2023-01-20 19:07:00,,0827.1,5.02,0.00,22.5,21.3,00.0,31.2,24.3,09.1,0000.0,0015.52,0007.22,0006.58
2023-01-20 19:08:00,,0827.1,4.98,0.00,22.5,21.3,00.0,31.3,24.3,09.2,0000.0,0015.13,0007.17,0006.52
2023-01-20 19:09:00,,0827.2,5.00,0.00,22.5,21.3,00.0,31.3,24.4,09.4,0000.0,0014.67,0007.13,0006.49
2023-01-20 19:10:00,,0827.1,5.00,0.00,22.5,21.3,00.0,31.3,24.4,09.6,0000.0,0015.38,0007.09,0006.50
2023-01-20 19:11:00,,0827.2,5.01,0.00,22.5,21.3,00.0,31.3,24.4,09.7,0000.0,0014.99,0007.05,0006.51
2023-01-20 19:12:00,,0827.1,5.00,0.00,22.6,21.3,00.0,31.3,24.4,09.6,0000.0,0014.71,0007.07,0006.55
2023-01-20 19:13:00,,0827.1,5.00,0.00,22.6,21.3,00.0,31.3,24.4,09.6,0000.0,0014.35,0007.16,0006.64
2023-01-20 19:14:00,,0827.3,5.00,0.00,22.6,21.3,00.0,31.3,24.4,09.4,0000.0,0014.00,0007.21,0006.70
2023-01-20 19:15:00,,0827.0,4.99,0.00,22.6,21.3,00.0,31.3,24.4,09.5,0000.0,0013.84,0007.23,0006.73
2023-01-20 19:16:00,,0827.0,4.99,0.00,22.6,21.3,00.0,31.3,24.4,09.2,0000.0,0013.51,0007.23,0006.75
2023-01-20 19:17:00,,0827.0,4.99,0.00,22.6,21.3,00.0,31.3,24.4,08.7,0000.0,0012.85,0007.16,0006.69
2023-01-20 19:18:00,,0826.9,4.99,0.00,22.6,21.4,00.0,31.3,24.5,08.9,0000.0,0012.52,0007.05,0006.61
2023-01-20 19:19:00,,0826.9,5.00,0.00,22.6,21.4,00.0,31.3,24.5,08.8,0000.0,0012.57,0006.93,0006.52
2023-01-20 19:20:00,,0826.9,5.00,0.00,22.6,21.4,00.0,31.3,24.5,08.9,0000.0,0013.23,0006.86,0006.43
2023-01-20 19:21:00,,0826.9,5.01,0.00,22.6,21.4,00.0,31.4,24.5,08.9,0000.0,0012.91,0006.79,0006.35
2023-01-20 19:22:00,,0826.9,5.00,0.00,22.6,21.4,00.0,31.4,24.5,09.0,0000.0,0012.89,0006.71,0006.28
2023-01-20 19:23:00,,0826.9,4.99,0.00,22.6,21.4,00.0,31.4,24.5,09.1,0000.0,0012.68,0006.64,0006.20
2023-01-20 19:24:00,,0826.9,5.00,0.00,22.7,21.4,00.0,31.4,24.5,09.1,0000.0,0012.52,0006.53,0006.11
2023-01-20 19:25:00,,0827.0,5.00,0.00,22.7,21.4,00.0,31.4,24.5,09.0,0000.0,0012.47,0006.48,0006.04
2023-01-20 19:26:00,,0827.0,5.00,0.00,22.7,21.4,00.0,31.4,24.5,08.8,0000.0,0012.38,0006.39,0005.96
2023-01-20 19:27:00,,0826.8,5.01,0.00,22.7,21.4,00.0,31.4,24.5,08.6,0000.0,0012.04,0006.31,0005.88
2023-01-20 19:28:00,,0826.8,5.00,0.00,22.7,21.4,00.0,31.4,24.5,08.6,0000.0,0011.70,0006.30,0005.87
2023-01-20 19:29:00,,0826.8,5.00,0.00,22.7,21.5,00.0,31.4,24.5,08.8,0000.0,0011.69,0006.29,0005.88
2023-01-20 19:30:00,,0826.7,5.00,0.00,22.7,21.5,00.0,31.4,24.5,08.8,0000.0,0011.50,0006.29,0005.88
2023-01-20 19:31:00,,0826.7,5.00,0.00,22.7,21.5,00.0,31.4,24.5,08.8,0000.0,0010.54,0006.28,0005.89
2023-01-20 19:32:00,,0826.8,5.01,0.00,22.7,21.5,00.0,31.4,24.6,08.9,0000.0,0009.88,0006.25,0005.87
2023-01-20 19:33:00,,0826.8,5.00,0.00,22.7,21.5,00.0,31.4,24.6,08.5,0000.0,0009.58,0006.23,0005.82
2023-01-20 19:34:00,,0826.8,4.99,0.00,22.7,21.5,00.0,31.5,24.6,08.5,0000.0,0009.71,0006.19,0005.78
2023-01-20 19:35:00,,0826.8,4.98,0.00,22.8,21.6,00.0,31.5,24.6,08.5,0000.0,0009.65,0006.15,0005.75
2023-01-20 19:36:00,,0826.8,5.00,0.00,22.8,21.6,00.0,31.5,24.6,08.5,0000.0,0009.47,0006.08,0005.71
2023-01-20 19:37:00,,0826.8,5.01,0.00,22.8,21.6,00.0,31.5,24.6,08.5,0000.0,0009.45,0006.07,0005.71
2023-01-20 19:38:00,,0826.8,5.00,0.00,22.8,21.6,00.0,31.5,24.7,08.4,0000.0,0009.35,0006.05,0005.69
2023-01-20 19:39:00,,0826.7,5.00,0.00,22.8,21.6,00.0,31.5,24.7,08.7,0000.0,0009.47,0006.05,0005.70
2023-01-20 19:40:00,,0826.7,5.00,0.00,22.8,21.6,00.0,31.5,24.7,08.6,0000.0,0009.40,0006.07,0005.70
2023-01-20 19:41:00,,0826.7,5.00,0.00,22.8,21.7,00.0,31.5,24.7,08.2,0000.0,0009.17,0006.03,0005.67
2023-01-20 19:42:00,,0826.7,4.99,0.00,22.9,21.7,00.0,31.6,24.7,08.3,0000.0,0009.12,0006.00,0005.66
2023-01-20 19:43:00,,0826.7,4.99,0.00,22.9,21.7,00.0,31.6,24.7,08.4,0000.0,0009.42,0005.99,0005.67
2023-01-20 19:44:00,,0826.7,4.99,0.00,22.9,21.7,00.0,31.6,24.7,08.5,0000.0,0009.58,0005.99,0005.70
2023-01-20 19:45:00,,0826.7,5.00,0.00,22.9,21.7,00.0,31.6,24.7,08.7,0000.0,0009.93,0006.00,0005.73
2023-01-20 19:46:00,,0826.6,4.97,0.00,22.9,21.7,00.0,31.6,24.7,08.7,0000.0,0009.94,0006.03,0005.77
2023-01-20 19:47:00,,0826.6,4.98,0.00,22.9,21.7,00.0,31.6,24.8,08.7,0000.0,0010.15,0006.12,0005.81
2023-01-20 19:48:00,,0826.6,5.00,0.00,22.9,21.8,00.0,31.6,24.8,08.7,0000.0,0010.17,0006.17,0005.85
2023-01-20 19:49:00,,0826.6,5.01,0.00,22.9,21.8,00.0,31.6,24.8,08.9,0000.0,0010.24,0006.23,0005.92
2023-01-20 19:50:00,,0826.5,4.97,0.00,22.9,21.8,00.0,31.7,24.8,09.3,0000.0,0010.24,0006.35,0006.02
2023-01-20 19:51:00,,0826.5,4.98,0.00,23.0,21.8,00.0,31.7,24.8,09.6,0000.0,0010.56,0006.58,0006.23
2023-01-20 19:52:00,,0826.5,4.97,0.00,23.0,21.8,00.0,31.7,24.8,09.5,0000.0,0010.88,0006.85,0006.47
2023-01-20 19:53:00,,0826.5,4.99,0.00,23.0,21.8,00.0,31.7,24.8,09.3,0000.0,0011.34,0007.10,0006.67
2023-01-20 19:54:00,,0826.5,4.97,0.00,23.0,21.8,00.0,31.7,24.8,09.2,0000.0,0011.61,0007.31,0006.85
2023-01-20 19:55:00,,0826.5,5.01,0.00,23.0,21.8,00.0,31.7,24.8,09.2,0000.0,0011.97,0007.51,0007.04
2023-01-20 19:56:00,,0826.5,5.00,0.00,23.0,21.8,00.0,31.7,24.8,09.3,0000.0,0011.69,0007.71,0007.25
2023-01-20 19:57:00,,0826.5,4.97,0.00,23.0,21.8,00.0,31.7,24.8,09.1,0000.0,0011.88,0007.92,0007.43
2023-01-20 19:58:00,,0826.5,5.00,0.00,23.0,21.8,00.0,31.7,24.9,09.0,0000.0,0012.26,0008.03,0007.57
2023-01-20 19:59:00,,0826.5,4.99,0.00,23.0,21.8,00.0,31.8,24.9,09.2,0000.0,0012.50,0008.20,0007.73
